[[{"header":{"parameterUnit":"m.s-1","parameterCategory":1,"la1":30.2991,"la2":30.254,"lo1":-89.0895,"lo2":-89.0444,"dy":0.0017,"dx":0.0017,"nx":28,"ny":28,"refTime":"2025-03-05T03:00:00:Z","depth":0,"parameterNumber":2,"parameterNumberName":"U-component_of_WINDS"},"data":[0,0,0,0,0,0,0,0,0,0,0,0,0,0,0,0,0,0,0,0,0,0,0,0,0,0,0,0,0,0,0,0,0,0,0,0,0,0,0,0,0,0,0,0,0,0,0,0,0,0,0,0,0,0,0,0,0,0,1.2232,1.2233,0,1.2274,1.2274,1.2275,1.2286,1.2285,1.2285,1.2285,1.2326,1.2328,1.2329,0,0,0,0,0,0,0,0,0,0,0,0,0,1.2163,1.2164,1.2232,1.2233,1.2233,1.2273,1.2274,1.2275,1.2286,1.2285,1.2285,1.2285,1.2326,1.2327,1.2329,0,0,0,0,0,0,0,0,0,0,0,0,0,1.2198,1.2165,1.2232,1.2244,1.2245,1.2273,1.2274,1.2275,1.2286,1.2285,1.2285,1.2285,1.2325,1.2327,1.2329,1.2349,0,0,1.2335,1.2336,0,0,0,0,0,0,0,0,1.2196,1.22,1.2241,1.2243,1.2245,1.2274,1.2265,1.23,1.2286,1.227,1.2285,1.2284,1.2309,1.2312,1.2321,1.2351,1.2353,1.2336,1.2337,1.2338,1.2338,0,0,0,0,0,0,0,1.2193,1.2198,1.2249,1.2242,1.2244,1.2247,1.2251,1.2272,1.2291,1.2272,1.2272,1.2277,1.231,1.2319,1.2322,1.2353,1.2335,1.2337,1.2338,1.2339,1.2403,1.2403,0,0,0,0,0,0,1.2189,1.2196,1.2247,1.225,1.2219,1.2248,1.2253,1.2265,1.2291,1.2295,1.2278,1.2278,1.2316,1.232,1.2324,1.2349,1.2338,1.2339,1.2341,1.2402,1.2403,1.2403,0,0,0,0,0,0,1.2187,1.2193,1.2246,1.2223,1.223,1.225,1.2263,1.2266,1.2275,1.2296,1.2299,1.2283,1.2316,1.2321,1.2343,1.235,1.234,1.2342,1.2402,1.2402,1.2403,1.2399,0,0,0,0,0,0,1.2185,1.2193,1.22,1.2224,1.2231,1.2264,1.2263,1.2267,1.2279,1.2279,1.2302,1.2305,1.2316,1.234,1.2345,1.2353,1.2344,1.2401,1.2402,1.2403,1.2399,1.24,1.24,0,0,0,0,0,1.2183,1.2197,1.22,1.2207,1.2241,1.2264,1.2269,1.2281,1.2279,1.2287,1.23,1.2304,1.2349,1.2342,1.2348,1.2357,1.24,1.2402,1.2403,1.2398,1.2399,1.24,0,0,0,0,0,0,1.2173,1.22,1.2204,1.2226,1.2243,1.2266,1.2276,1.2282,1.2299,1.2299,1.2313,1.2318,1.2339,1.235,1.2342,1.2378,1.2375,1.2377,1.2369,1.2371,1.2372,1.2368,1.2345,0,0,0,0,0,1.2174,1.2191,1.2213,1.2231,1.2239,1.2256,1.2267,1.2275,1.2293,1.23,1.2315,1.2331,1.235,1.2361,1.2378,1.2401,1.2406,1.241,1.2411,1.2411,1.2413,1.2426,1.2428,1.2407,1.2407,1.2407,0,0,1.2175,1.2192,1.2201,1.2229,1.2243,1.226,1.2262,1.228,1.2293,1.2302,1.2324,1.2336,1.2356,1.2378,1.2389,1.2388,1.242,1.2413,1.2413,1.2414,1.2428,1.243,1.2432,1.2408,1.2407,1.2407,0,0,1.2186,1.22,1.2216,1.2231,1.2252,1.2264,1.2268,1.2291,1.2299,1.2321,1.2329,1.2345,1.2375,1.239,1.2401,1.2419,1.2424,1.2424,1.2429,1.2442,1.2443,1.2445,1.2452,1.2454,1.2426,1.2426,1.2426,0,1.2184,1.221,1.2224,1.2242,1.2254,1.2265,1.2282,1.2295,1.232,1.2329,1.2328,1.2367,1.2381,1.2408,1.2412,1.2421,1.2426,1.2421,1.2442,1.2444,1.2446,1.2452,1.2455,1.2426,1.2426,1.2426,1.2426,0,1.2208,1.2226,1.2237,1.2262,1.2276,1.2293,1.231,1.2322,1.2329,1.2341,1.2365,1.2382,1.2404,1.2411,1.2418,1.2439,1.2438,1.2439,1.2437,1.2447,1.2454,1.2456,1.2426,1.2426,1.2426,1.2426,0,0,1.2212,1.2246,1.225,1.2262,1.2287,1.2301,1.232,1.2342,1.2352,1.237,1.2386,1.2412,1.2414,1.2427,1.2436,1.2448,1.2462,1.2448,1.2449,1.245,1.2486,1.2485,1.2487,1.2465,1.2466,1.2466,1.2485,0,1.2226,1.2259,1.2272,1.2299,1.2316,1.2328,1.2344,1.2361,1.2373,1.239,1.2403,1.2422,1.2423,1.2431,1.2443,1.2457,1.2469,1.2456,1.248,1.2481,1.2474,1.2491,1.2489,1.2505,1.2487,1.2488,1.2488,0,1.2246,1.2265,1.2293,1.2318,1.2325,1.2339,1.2361,1.2377,1.2398,1.2406,1.2421,1.243,1.245,1.2447,1.2475,1.2466,1.2477,1.2486,1.2487,1.2489,1.2485,1.2493,1.2511,1.2513,1.2492,1.2492,1.2491,0,1.2246,1.2279,1.2301,1.2311,1.2339,1.2349,1.2362,1.2382,1.2395,1.2414,1.2422,1.2444,1.2455,1.2472,1.2486,1.2482,1.2513,1.2511,1.2521,1.252,1.2526,1.2525,1.2545,1.2533,1.2533,1.2533,1.2533,0,1.226,1.2277,1.2301,1.2314,1.2334,1.235,1.237,1.2383,1.2401,1.2417,1.2428,1.2443,1.2462,1.248,1.2491,1.2513,1.2518,1.2526,1.2528,1.2524,1.2523,1.2531,1.253,1.2534,1.2534,1.2534,1.2534,0,1.2263,1.228,1.2305,1.233,1.2337,1.2351,1.2373,1.2387,1.24,1.2421,1.2426,1.2447,1.2469,1.2485,1.2513,1.2521,1.2544,1.2547,1.2537,1.2539,1.2547,1.2546,1.2572,1.2577,1.2563,1.2563,1.2563,0,1.2271,1.2284,1.2312,1.2324,1.2336,1.2355,1.2369,1.2386,1.2399,1.2424,1.2435,1.2457,1.2476,1.251,1.2528,1.2549,1.2553,1.2561,1.2556,1.2552,1.2553,1.2552,1.2554,1.2561,1.2561,1.2561,1.2561,0,1.2282,1.229,1.2309,1.2331,1.2347,1.2365,1.2384,1.2393,1.2413,1.2428,1.2451,1.2465,1.2494,1.2517,1.2541,1.2554,1.2561,1.2563,1.2566,1.2562,1.2556,1.2559,1.2539,1.2562,1.2562,1.2562,1.2562,1.2562,1.2288,1.23,1.2322,1.2343,1.2359,1.2377,1.2391,1.2407,1.2426,1.2451,1.246,1.2483,1.2505,1.2538,1.2551,1.257,1.257,1.2575,1.2576,1.2577,1.2576,1.2553,1.2574,1.2574,1.2574,1.2574,1.2574,0,1.2299,1.2314,1.2334,1.236,1.2377,1.2383,1.2404,1.2418,1.2438,1.2458,1.2476,1.2503,1.2525,1.2545,1.2568,1.258,1.2584,1.2585,1.2584,1.2587,1.2575,1.257,1.2581,1.2581,1.2581,1.2581,1.2581,1.2581,1.2308,1.233,1.2341,1.2372,1.2387,1.241,1.2422,1.2438,1.2454,1.2483,1.2501,1.2515,1.2535,1.256,1.2581,1.2586,1.2594,1.2595,1.2601,1.2589,1.2588,1.2587,1.2582,1.2596,1.2596,1.2612,1.2612,1.2612]},{"header":{"parameterUnit":"m.s-1","parameterCategory":1,"la1":30.2991,"la2":30.254,"lo1":-89.0895,"lo2":-89.0444,"dy":0.0017,"dx":0.0017,"nx":28,"ny":28,"refTime":"2025-03-05T03:00:00:Z","depth":0,"parameterNumber":3,"parameterNumberName":"V-component_of_WINDS"},"data":[0,0,0,0,0,0,0,0,0,0,0,0,0,0,0,0,0,0,0,0,0,0,0,0,0,0,0,0,0,0,0,0,0,0,0,0,0,0,0,0,0,0,0,0,0,0,0,0,0,0,0,0,0,0,0,0,0,0,-5.6048,-5.6049,0,-5.6163,-5.6164,-5.6165,-5.6154,-5.6152,-5.6151,-5.6149,-5.6262,-5.6266,-5.6271,0,0,0,0,0,0,0,0,0,0,0,0,0,-5.5815,-5.5819,-5.6047,-5.6049,-5.605,-5.6163,-5.6164,-5.6166,-5.6154,-5.6152,-5.615,-5.6148,-5.626,-5.6266,-5.6271,0,0,0,0,0,0,0,0,0,0,0,0,0,-5.5921,-5.582,-5.6047,-5.6058,-5.6061,-5.6162,-5.6164,-5.6166,-5.6155,-5.6152,-5.615,-5.6147,-5.6258,-5.6265,-5.6272,-5.6368,0,0,-5.6293,-5.6296,0,0,0,0,0,0,0,0,-5.5915,-5.593,-5.6055,-5.6058,-5.6061,-5.6142,-5.6123,-5.6234,-5.6156,-5.6119,-5.6149,-5.6146,-5.6223,-5.6233,-5.626,-5.6374,-5.6378,-5.6294,-5.6298,-5.6301,-5.6303,0,0,0,0,0,0,0,-5.5908,-5.5925,-5.6093,-5.6057,-5.606,-5.6057,-5.6069,-5.6144,-5.6184,-5.6122,-5.6121,-5.6135,-5.6224,-5.6254,-5.6263,-5.638,-5.6294,-5.63,-5.6304,-5.6307,-5.658,-5.6583,0,0,0,0,0,0,-5.5898,-5.5919,-5.6089,-5.6096,-5.598,-5.6063,-5.6077,-5.6118,-5.6184,-5.6191,-5.6138,-5.6135,-5.6243,-5.6255,-5.6267,-5.6386,-5.6301,-5.6308,-5.6312,-5.6577,-5.6581,-5.6584,0,0,0,0,0,0,-5.5893,-5.5914,-5.6085,-5.6008,-5.6029,-5.607,-5.6116,-5.6122,-5.6151,-5.6196,-5.6202,-5.6161,-5.6241,-5.6257,-5.6344,-5.6389,-5.6311,-5.6317,-5.6573,-5.6578,-5.6582,-5.6623,0,0,0,0,0,0,-5.5887,-5.5912,-5.595,-5.6009,-5.6033,-5.6161,-5.6119,-5.6126,-5.6164,-5.6161,-5.6219,-5.6226,-5.6241,-5.6334,-5.6351,-5.6398,-5.6323,-5.6569,-5.6575,-5.6581,-5.6618,-5.6628,-5.6637,0,0,0,0,0,-5.5878,-5.5955,-5.5952,-5.5972,-5.6081,-5.6164,-5.6178,-5.6194,-5.6168,-5.6206,-5.6234,-5.6224,-5.6382,-5.6343,-5.6362,-5.6411,-5.6567,-5.6574,-5.658,-5.6613,-5.6626,-5.6637,0,0,0,0,0,0,-5.5898,-5.5963,-5.596,-5.6058,-5.6106,-5.6162,-5.621,-5.6207,-5.6262,-5.6257,-5.6274,-5.6287,-5.6375,-5.6402,-5.6357,-5.6509,-5.647,-5.6481,-5.6489,-5.6501,-5.6511,-5.6503,-5.6328,0,0,0,0,0,-5.5914,-5.5977,-5.6029,-5.611,-5.6135,-5.6169,-5.6205,-5.6214,-5.6263,-5.6283,-5.6318,-5.6365,-5.6426,-5.6465,-5.6522,-5.6621,-5.6634,-5.6665,-5.6675,-5.6683,-5.6692,-5.6748,-5.6763,-5.6607,-5.6607,-5.6606,0,0,-5.5947,-5.599,-5.6028,-5.6116,-5.6154,-5.6218,-5.6185,-5.6254,-5.6301,-5.6293,-5.6378,-5.6406,-5.6459,-5.6553,-5.6596,-5.6578,-5.6738,-5.6691,-5.6697,-5.6703,-5.6757,-5.6771,-5.6784,-5.6611,-5.661,-5.661,0,0,-5.604,-5.6079,-5.6152,-5.6192,-5.6251,-5.6273,-5.6291,-5.6348,-5.6367,-5.6453,-5.6449,-5.6504,-5.6607,-5.6647,-5.668,-5.6791,-5.6784,-5.6809,-5.686,-5.6915,-5.6927,-5.6938,-5.6979,-5.6993,-5.6818,-5.6818,-5.6818,0,-5.6073,-5.6171,-5.6189,-5.626,-5.6299,-5.6296,-5.6371,-5.6407,-5.6481,-5.6508,-5.6487,-5.6618,-5.6654,-5.6758,-5.6785,-5.6812,-5.6833,-5.6802,-5.6924,-5.6935,-5.6946,-5.6985,-5.7,-5.6821,-5.6821,-5.682,-5.682,0,-5.6209,-5.6277,-5.6329,-5.6404,-5.6448,-5.652,-5.6549,-5.6591,-5.6597,-5.6621,-5.671,-5.6753,-5.682,-5.6846,-5.685,-5.6951,-5.6938,-5.692,-5.6882,-5.6963,-5.7,-5.7015,-5.6825,-5.6824,-5.6823,-5.6822,0,0,-5.6317,-5.6403,-5.6422,-5.6457,-5.6523,-5.6575,-5.6647,-5.6715,-5.6752,-5.6803,-5.6864,-5.6952,-5.6937,-5.6975,-5.6985,-5.7032,-5.7119,-5.7009,-5.7011,-5.7029,-5.7234,-5.7248,-5.7265,-5.7115,-5.7118,-5.712,-5.723,0,-5.6418,-5.6547,-5.6567,-5.668,-5.6744,-5.6743,-5.6806,-5.6853,-5.6878,-5.6934,-5.6961,-5.7024,-5.6999,-5.7022,-5.7069,-5.7099,-5.7161,-5.7091,-5.7172,-5.7174,-5.7159,-5.7284,-5.7298,-5.74,-5.7245,-5.7247,-5.7249,0,-5.6552,-5.6611,-5.6731,-5.6791,-5.6818,-5.6875,-5.694,-5.6994,-5.7047,-5.7062,-5.7106,-5.711,-5.7184,-5.7143,-5.7245,-5.7197,-5.7231,-5.7251,-5.7255,-5.7264,-5.7217,-5.7297,-5.7433,-5.7448,-5.7272,-5.727,-5.7268,0,-5.6621,-5.6729,-5.6816,-5.6845,-5.6917,-5.6957,-5.6988,-5.7039,-5.7079,-5.7136,-5.7162,-5.7225,-5.726,-5.7309,-5.733,-5.7298,-5.7432,-5.7391,-5.7446,-5.7446,-5.7474,-5.7472,-5.7619,-5.7495,-5.7495,-5.7494,-5.7494,0,-5.6732,-5.6806,-5.6848,-5.6901,-5.6985,-5.7006,-5.7087,-5.7117,-5.7163,-5.7222,-5.7224,-5.7279,-5.7303,-5.7362,-5.7378,-5.7461,-5.7476,-5.749,-5.7494,-5.7491,-5.7489,-5.7514,-5.7508,-5.7498,-5.7498,-5.7497,-5.7496,0,-5.6822,-5.6853,-5.6948,-5.7009,-5.7026,-5.7085,-5.7136,-5.7188,-5.7213,-5.7288,-5.7306,-5.7345,-5.7414,-5.7441,-5.7524,-5.7535,-5.7632,-5.7629,-5.7615,-5.7616,-5.7669,-5.7664,-5.7837,-5.7861,-5.772,-5.7722,-5.7723,0,-5.6892,-5.6949,-5.7017,-5.7058,-5.7091,-5.7156,-5.7199,-5.7222,-5.7266,-5.7332,-5.7376,-5.7446,-5.7502,-5.7613,-5.7648,-5.7712,-5.7711,-5.7768,-5.7721,-5.7717,-5.7714,-5.7711,-5.7717,-5.7776,-5.7778,-5.7779,-5.778,0,-5.7012,-5.7025,-5.7087,-5.7155,-5.7206,-5.726,-5.7312,-5.7345,-5.7377,-5.7425,-5.7498,-5.7542,-5.7629,-5.7698,-5.7765,-5.7795,-5.7793,-5.7794,-5.7811,-5.7808,-5.7798,-5.7806,-5.7639,-5.779,-5.7789,-5.7788,-5.7788,-5.7787,-5.7095,-5.7147,-5.7204,-5.7273,-5.7316,-5.7365,-5.7418,-5.745,-5.7512,-5.7586,-5.7595,-5.7673,-5.7726,-5.7816,-5.785,-5.791,-5.7895,-5.7918,-5.7924,-5.793,-5.7935,-5.7788,-5.7922,-5.7922,-5.7922,-5.7921,-5.7921,0,-5.7216,-5.7254,-5.7317,-5.7392,-5.7447,-5.7442,-5.75,-5.7546,-5.7615,-5.7666,-5.7723,-5.7806,-5.7874,-5.7915,-5.7983,-5.8024,-5.8024,-5.8041,-5.8038,-5.8046,-5.7943,-5.7923,-5.8039,-5.8039,-5.8039,-5.8039,-5.8039,-5.8039,-5.7286,-5.7375,-5.7395,-5.7505,-5.7541,-5.7619,-5.7653,-5.7699,-5.7739,-5.7834,-5.7891,-5.7918,-5.7965,-5.8037,-5.8099,-5.8109,-5.8134,-5.8152,-5.8161,-5.8065,-5.8053,-5.8041,-5.8022,-5.8157,-5.8157,-5.8259,-5.826,-5.826]}]]